Back to catalog

FENGYUN 1C DEB

AliveSSO
NORAD 30393·DEBRIS·🇨🇳 China

Launched May 10, 1999 from Taiyuan Satellite Launch Center

Loading…

Next Passes (next 24 hours)

TLE

FreshSource: Space-Track

Epoch: Sep 13, 2026, 10:31 UTC

1 30393U 99025ADG 26256.43854747 -.00000081  00000-0 -24497-4 0  9997
2 30393  99.1269 318.6331 0070738 224.8897 147.5028 13.99071699  1660

Track FENGYUN 1C DEB in real time with AllMySat

Download on the App Store